| time (UTC) | temp F | wind direction | speed knots | gust knots | rain 1hr in | rain 24hr in | rain mn in | humidity % | barometer mb |
| 20260507033504 | 48 | 90 | 3.5 | 3.5 | 0.00 | 0.00 | 0.00 | 99 | 1021.3 |
| 20260507033005 | 48 | 90 | 3.5 | 3.5 | 0.00 | 0.00 | 0.00 | 99 | 1021.3 |
| 20260507032504 | 49 | 89 | 2.6 | 3.5 | 0.00 | 0.00 | 0.00 | 99 | 1021.3 |
| 20260507032004 | 49 | 107 | 1.7 | 2.6 | 0.00 | 0.00 | 0.00 | 99 | 1021.3 |
| 20260507031504 | 49 | 106 | 2.6 | 3.5 | 0.00 | 0.00 | 0.00 | 99 | 1021.3 |
| 20260507031004 | 49 | 104 | 1.7 | 3.5 | 0.00 | 0.00 | 0.00 | 99 | 1021.3 |
| 20260507030504 | 49 | 102 | 0.9 | 1.7 | 0.00 | 0.00 | 0.00 | 99 | 1021.3 |
| 20260507030006 | 49 | 99 | 0.9 | 1.7 | 0.00 | 0.00 | 0.00 | 99 | 1021.3 |
| 20260507025504 | 49 | 104 | 0.9 | 1.7 | 0.00 | 0.00 | 0.00 | 99 | 1021.3 |
| 20260507025005 | 49 | 95 | 0.9 | 1.7 | 0.00 | 0.00 | 0.00 | 99 | 1021.3 |
| 20260507024504 | 49 | 92 | 0.9 | 1.7 | 0.00 | 0.00 | 0.00 | 99 | 1021.3 |
| 20260507024004 | 49 | 94 | 1.7 | 2.6 | 0.00 | 0.00 | 0.00 | 99 | 1021.3 |
| 20260507023505 | 49 | 88 | 1.7 | 2.6 | 0.00 | 0.00 | 0.00 | 99 | 1021.3 |
| 20260507023004 | 49 | 91 | 0.9 | 2.6 | 0.00 | 0.00 | 0.00 | 99 | 1021.3 |
| 20260507022504 | 49 | 98 | 0.9 | 1.7 | 0.00 | 0.00 | 0.00 | 99 | 1021.3 |
| 20260507022004 | 49 | 106 | 1.7 | 3.5 | 0.00 | 0.00 | 0.00 | 99 | 1021.3 |
| 20260507021504 | 49 | 112 | 2.6 | 3.5 | 0.00 | 0.00 | 0.00 | 99 | 1022.3 |
| 20260507021004 | 49 | 100 | 2.6 | 2.6 | 0.00 | 0.00 | 0.00 | 99 | 1022.3 |
| 20260507020505 | 49 | 90 | 2.6 | 2.6 | 0.00 | 0.00 | 0.00 | 99 | 1022.3 |
| 20260507020006 | 49 | 99 | 1.7 | 2.6 | 0.00 | 0.00 | 0.00 | 100 | 1021.3 |
| 20260507015504 | 49 | 115 | 0.9 | 1.7 | 0.00 | 0.00 | 0.00 | 100 | 1021.3 |
| 20260507015004 | 49 | 105 | 0.9 | 1.7 | 0.00 | 0.00 | 0.00 | 100 | 1021.3 |
| 20260507014504 | 49 | 85 | 0.9 | 1.7 | 0.00 | 0.00 | 0.00 | 100 | 1021.3 |
| 20260507014004 | 49 | 103 | 0.9 | 1.7 | 0.00 | 0.00 | 0.00 | 100 | 1021.3 |
| 20260507013504 | 49 | 104 | 0.9 | 1.7 | 0.00 | 0.00 | 0.00 | 100 | 1021.3 |
| 20260507013004 | 49 | 112 | 0.9 | 1.7 | 0.00 | 0.00 | 0.00 | 100 | 1021.3 |
| 20260507012504 | 49 | 112 | 1.7 | 1.7 | 0.00 | 0.00 | 0.00 | 100 | 1021.3 |
| 20260507012004 | 49 | 111 | 1.7 | 2.6 | 0.00 | 0.00 | 0.00 | 100 | 1021.3 |
| 20260507010504 | 49 | 112 | 1.7 | 3.5 | 0.00 | 0.00 | 0.00 | 97 | 1021.3 |
| 20260507010006 | 49 | 112 | 0.9 | 0.9 | 0.00 | 0.00 | 0.00 | 97 | 1021.3 |
| 20260507005504 | 49 | 90 | 2.6 | 2.6 | 0.00 | 0.00 | 0.00 | 97 | 1021.3 |
| 20260507005004 | 49 | 90 | 2.6 | 2.6 | 0.00 | 0.00 | 0.00 | 97 | 1021.3 |
| 20260507004504 | 49 | 90 | 2.6 | 2.6 | 0.00 | 0.00 | 0.00 | 97 | 1022.3 |
| 20260507004004 | 49 | 85 | 1.7 | 2.6 | 0.00 | 0.00 | 0.00 | 97 | 1022.3 |
| 20260507003504 | 49 | 79 | 1.7 | 2.6 | 0.00 | 0.00 | 0.00 | 97 | 1022.3 |
| 20260507003004 | 50 | 83 | 1.7 | 1.7 | 0.00 | 0.00 | 0.00 | 97 | 1022.3 |
| 20260507002504 | 50 | 97 | 1.7 | 2.6 | 0.00 | 0.00 | 0.00 | 97 | 1022.3 |
| 20260507002004 | 50 | 104 | 1.7 | 2.6 | 0.00 | 0.00 | 0.00 | 96 | 1022.3 |
| 20260507001504 | 50 | 110 | 1.7 | 1.7 | 0.00 | 0.00 | 0.00 | 96 | 1022.3 |
| 20260507001004 | 50 | 112 | 1.7 | 1.7 | 0.00 | 0.00 | 0.00 | 96 | 1022.3 |
| 20260507000505 | 50 | 109 | 1.7 | 2.6 | 0.00 | 0.00 | 0.00 | 96 | 1022.3 |
| 20260507000006 | 50 | 106 | 1.7 | 2.6 | 0.00 | 0.00 | 0.00 | 96 | 1022.3 |
| 20260506235504 | 50 | 107 | 1.7 | 1.7 | 0.00 | 0.00 | 0.00 | 96 | 1022.3 |
| 20260506235004 | 51 | 99 | 2.6 | 3.5 | 0.00 | 0.00 | 0.00 | 96 | 1022.3 |
| 20260506234504 | 51 | 102 | 2.6 | 3.5 | 0.00 | 0.00 | 0.00 | 95 | 1022.3 |
| 20260506233504 | 51 | 106 | 2.6 | 2.6 | 0.00 | 0.00 | 0.00 | 95 | 1022.3 |
| 20260506233004 | 51 | 105 | 1.7 | 2.6 | 0.00 | 0.00 | 0.00 | 95 | 1022.3 |
| 20260506232504 | 51 | 93 | 1.7 | 2.6 | 0.00 | 0.00 | 0.00 | 95 | 1022.3 |
| 20260506232005 | 51 | 101 | 2.6 | 3.5 | 0.00 | 0.00 | 0.00 | 95 | 1022.3 |
| 20260506231504 | 52 | 108 | 1.7 | 3.5 | 0.00 | 0.00 | 0.00 | 95 | 1022.3 |
| 20260506231005 | 52 | 109 | 1.7 | 2.6 | 0.00 | 0.00 | 0.00 | 95 | 1022.3 |
| 20260506230504 | 52 | 108 | 1.7 | 2.6 | 0.00 | 0.00 | 0.00 | 95 | 1022.3 |
| 20260506230009 | 52 | 109 | 2.6 | 3.5 | 0.00 | 0.00 | 0.00 | 95 | 1022.3 |
| 20260506225504 | 52 | 106 | 1.7 | 3.5 | 0.00 | 0.00 | 0.00 | 95 | 1022.3 |
| 20260506225004 | 52 | 108 | 1.7 | 1.7 | 0.00 | 0.00 | 0.00 | 94 | 1022.3 |
| 20260506224504 | 52 | 102 | 1.7 | 2.6 | 0.00 | 0.00 | 0.00 | 94 | 1022.3 |
| 20260506224004 | 52 | 102 | 1.7 | 2.6 | 0.00 | 0.00 | 0.00 | 94 | 1022.3 |
| 20260506223504 | 52 | 94 | 1.7 | 2.6 | 0.00 | 0.00 | 0.00 | 94 | 1022.3 |
| 20260506223004 | 52 | 104 | 1.7 | 3.5 | 0.00 | 0.00 | 0.00 | 94 | 1022.3 |
| 20260506222505 | 52 | 112 | 1.7 | 3.5 | 0.00 | 0.00 | 0.00 | 94 | 1022.3 |
| 20260506222005 | 52 | 112 | 2.6 | 3.5 | 0.00 | 0.00 | 0.00 | 94 | 1022.3 |
| 20260506221504 | 52 | 112 | 2.6 | 2.6 | 0.00 | 0.00 | 0.00 | 93 | 1022.3 |
| 20260506221004 | 52 | 112 | 1.7 | 2.6 | 0.00 | 0.00 | 0.00 | 92 | 1022.3 |
| 20260506220504 | 53 | 112 | 0.9 | 2.6 | 0.00 | 0.00 | 0.00 | 92 | 1022.3 |
| 20260506220006 | 53 | 112 | 0.9 | 1.7 | 0.00 | 0.00 | 0.00 | 91 | 1022.3 |
| 20260506215504 | 53 | 112 | 0.0 | 1.7 | 0.00 | 0.00 | 0.00 | 91 | 1022.3 |
| 20260506215004 | 53 | 0 | 0.0 | 0.0 | 0.00 | 0.00 | 0.00 | 91 | 1022.3 |
| 20260506214504 | 53 | 112 | 0.0 | 0.9 | 0.00 | 0.00 | 0.00 | 91 | 1022.3 |
| 20260506214004 | 53 | 97 | 0.9 | 2.6 | 0.00 | 0.00 | 0.00 | 91 | 1022.3 |
| 20260506213504 | 53 | 82 | 1.7 | 2.6 | 0.00 | 0.00 | 0.00 | 91 | 1022.3 |
| 20260506213004 | 53 | 80 | 0.9 | 2.6 | 0.00 | 0.00 | 0.00 | 91 | 1022.3 |
| 20260506212504 | 53 | 100 | 0.9 | 1.7 | 0.00 | 0.00 | 0.00 | 91 | 1022.3 |
| 20260506212004 | 53 | 108 | 1.7 | 2.6 | 0.00 | 0.00 | 0.00 | 91 | 1022.3 |
| 20260506211504 | 53 | 84 | 1.7 | 2.6 | 0.00 | 0.00 | 0.00 | 91 | 1022.3 |
| 20260506211004 | 53 | 76 | 1.7 | 2.6 | 0.00 | 0.00 | 0.00 | 90 | 1022.3 |
| 20260506210504 | 53 | 77 | 0.9 | 1.7 | 0.00 | 0.00 | 0.00 | 90 | 1022.3 |
| 20260506210006 | 53 | 0 | 0.0 | 0.0 | 0.00 | 0.00 | 0.00 | 90 | 1022.3 |
| 20260506205504 | 53 | 158 | 0.0 | 0.9 | 0.00 | 0.00 | 0.00 | 90 | 1022.3 |
| 20260506205004 | 53 | 158 | 0.9 | 1.7 | 0.00 | 0.00 | 0.00 | 90 | 1022.3 |
| 20260506204504 | 53 | 158 | 0.9 | 1.7 | 0.00 | 0.00 | 0.00 | 90 | 1022.3 |
| 20260506204004 | 53 | 90 | 0.0 | 1.7 | 0.00 | 0.00 | 0.00 | 90 | 1022.3 |
| 20260506143005 | 61 | 85 | 4.3 | 6.1 | 0.00 | 0.00 | 0.00 | 57 | 1021.3 |
| 20260506142505 | 61 | 88 | 5.2 | 6.1 | 0.00 | 0.00 | 0.00 | 55 | 1021.3 |
| 20260506142006 | 61 | 91 | 4.3 | 6.1 | 0.00 | 0.00 | 0.00 | 55 | 1021.3 |
| 20260506141505 | 61 | 87 | 5.2 | 7.0 | 0.00 | 0.00 | 0.00 | 56 | 1021.3 |
| 20260506141005 | 61 | 79 | 6.1 | 7.0 | 0.00 | 0.00 | 0.00 | 56 | 1021.3 |
| 20260506140505 | 61 | 77 | 6.1 | 7.8 | 0.00 | 0.00 | 0.00 | 55 | 1021.3 |
| 20260506140007 | 61 | 82 | 6.1 | 7.8 | 0.00 | 0.00 | 0.00 | 58 | 1021.3 |
| 20260506135505 | 61 | 91 | 5.2 | 6.1 | 0.00 | 0.00 | 0.00 | 58 | 1021.3 |
| 20260506135005 | 60 | 92 | 4.3 | 5.2 | 0.00 | 0.00 | 0.00 | 59 | 1021.3 |
| 20260506134505 | 61 | 87 | 5.2 | 7.0 | 0.00 | 0.00 | 0.00 | 59 | 1021.3 |
| 20260506134005 | 60 | 80 | 5.2 | 7.0 | 0.00 | 0.00 | 0.00 | 58 | 1021.3 |
| 20260506133505 | 61 | 80 | 3.5 | 7.0 | 0.00 | 0.00 | 0.00 | 59 | 1021.3 |
| 20260506133005 | 60 | 83 | 3.5 | 4.3 | 0.00 | 0.00 | 0.00 | 60 | 1021.3 |
| 20260506132505 | 60 | 90 | 3.5 | 7.0 | 0.00 | 0.00 | 0.00 | 60 | 1021.3 |
| 20260506132005 | 60 | 97 | 3.5 | 7.0 | 0.00 | 0.00 | 0.00 | 59 | 1021.3 |
| 20260506131505 | 60 | 88 | 3.5 | 5.2 | 0.00 | 0.00 | 0.00 | 60 | 1021.3 |
| 20260506131005 | 60 | 94 | 3.5 | 5.2 | 0.00 | 0.00 | 0.00 | 62 | 1021.3 |
| 20260506130505 | 60 | 92 | 3.5 | 5.2 | 0.00 | 0.00 | 0.00 | 63 | 1021.3 |
| 20260506130007 | 59 | 88 | 4.3 | 5.2 | 0.00 | 0.00 | 0.00 | 63 | 1021.3 |
| 20260506125505 | 59 | 74 | 4.3 | 5.2 | 0.00 | 0.00 | 0.00 | 64 | 1021.3 |
| 20260506125006 | 59 | 55 | 4.3 | 7.0 | 0.00 | 0.00 | 0.00 | 65 | 1021.3 |
| 20260506124505 | 59 | 72 | 4.3 | 7.0 | 0.00 | 0.00 | 0.00 | 65 | 1021.3 |
| 20260506124006 | 59 | 85 | 3.5 | 7.0 | 0.00 | 0.00 | 0.00 | 65 | 1021.3 |
| 20260506123504 | 59 | 86 | 3.5 | 7.0 | 0.00 | 0.00 | 0.00 | 66 | 1021.3 |
| 20260506123005 | 58 | 82 | 4.3 | 7.0 | 0.00 | 0.00 | 0.00 | 67 | 1021.3 |
| 20260506122505 | 58 | 81 | 4.3 | 7.0 | 0.00 | 0.00 | 0.00 | 67 | 1021.3 |
| 20260506122005 | 58 | 79 | 3.5 | 5.2 | 0.00 | 0.00 | 0.00 | 66 | 1021.3 |
| 20260506121505 | 58 | 75 | 3.5 | 5.2 | 0.00 | 0.00 | 0.00 | 67 | 1022.3 |
| 20260506121005 | 58 | 67 | 3.5 | 4.3 | 0.00 | 0.00 | 0.00 | 67 | 1022.3 |
| 20260506120505 | 58 | 76 | 3.5 | 6.1 | 0.00 | 0.00 | 0.00 | 68 | 1022.3 |
| 20260506120007 | 58 | 89 | 3.5 | 6.1 | 0.00 | 0.00 | 0.00 | 68 | 1022.3 |
| 20260506115505 | 58 | 85 | 3.5 | 4.3 | 0.00 | 0.00 | 0.00 | 67 | 1022.3 |
| 20260506115005 | 58 | 78 | 3.5 | 5.2 | 0.00 | 0.00 | 0.00 | 67 | 1022.3 |
| 20260506114505 | 58 | 77 | 3.5 | 5.2 | 0.00 | 0.00 | 0.00 | 69 | 1022.3 |
| 20260506114005 | 58 | 93 | 3.5 | 6.1 | 0.00 | 0.00 | 0.00 | 71 | 1022.3 |
| 20260506113505 | 57 | 91 | 4.3 | 6.1 | 0.00 | 0.00 | 0.00 | 70 | 1022.3 |
| 20260506113005 | 57 | 84 | 4.3 | 6.1 | 0.00 | 0.00 | 0.00 | 70 | 1021.3 |
| 20260506112505 | 57 | 84 | 3.5 | 6.1 | 0.00 | 0.00 | 0.00 | 71 | 1021.3 |
| 20260506112005 | 57 | 92 | 2.6 | 3.5 | 0.00 | 0.00 | 0.00 | 71 | 1021.3 |
| 20260506111505 | 57 | 86 | 2.6 | 4.3 | 0.00 | 0.00 | 0.00 | 72 | 1021.3 |
| 20260506111005 | 57 | 85 | 1.7 | 4.3 | 0.00 | 0.00 | 0.00 | 73 | 1021.3 |
| 20260506110505 | 57 | 127 | 0.9 | 1.7 | 0.00 | 0.00 | 0.00 | 74 | 1021.3 |
| 20260506110007 | 57 | 254 | 1.7 | 3.5 | 0.00 | 0.00 | 0.00 | 76 | 1022.3 |
| 20260506105505 | 56 | 248 | 1.7 | 3.5 | 0.00 | 0.00 | 0.00 | 76 | 1022.3 |
| 20260506105004 | 56 | 262 | 1.7 | 2.6 | 0.00 | 0.00 | 0.00 | 76 | 1022.3 |
| 20260506104505 | 56 | 275 | 0.9 | 2.6 | 0.00 | 0.00 | 0.00 | 75 | 1021.3 |
| 20260506104005 | 56 | 0 | 0.0 | 0.0 | 0.00 | 0.00 | 0.00 | 75 | 1021.3 |
| 20260506103504 | 56 | 292 | 5.2 | 5.2 | 0.00 | 0.00 | 0.00 | 74 | 1021.3 |
| 20260506103005 | 57 | 292 | 5.2 | 5.2 | 0.00 | 0.00 | 0.00 | 73 | 1021.3 |
| 20260506102505 | 57 | 292 | 5.2 | 5.2 | 0.00 | 0.00 | 0.00 | 73 | 1021.3 |
| 20260506102005 | 57 | 292 | 5.2 | 5.2 | 0.00 | 0.00 | 0.00 | 74 | 1021.3 |
| 20260506101505 | 57 | 292 | 5.2 | 5.2 | 0.00 | 0.00 | 0.00 | 74 | 1021.3 |
| 20260506101006 | 57 | 292 | 5.2 | 5.2 | 0.00 | 0.00 | 0.00 | 74 | 1021.3 |
| 20260506100504 | 57 | 292 | 5.2 | 5.2 | 0.00 | 0.00 | 0.00 | 74 | 1021.3 |
| 20260506100008 | 58 | 292 | 4.3 | 5.2 | 0.00 | 0.00 | 0.00 | 73 | 1021.3 |
| 20260506095505 | 58 | 304 | 4.3 | 5.2 | 0.00 | 0.00 | 0.00 | 73 | 1021.3 |
| 20260506095005 | 58 | 309 | 4.3 | 5.2 | 0.00 | 0.00 | 0.00 | 71 | 1021.3 |
| 20260506094505 | 58 | 292 | 4.3 | 4.3 | 0.00 | 0.00 | 0.00 | 71 | 1021.3 |
| 20260506094005 | 59 | 252 | 1.7 | 3.5 | 0.00 | 0.00 | 0.00 | 69 | 1021.3 |
| 20260506093505 | 59 | 252 | 1.7 | 3.5 | 0.00 | 0.00 | 0.00 | 69 | 1021.3 |
| 20260506093004 | 59 | 252 | 1.7 | 3.5 | 0.00 | 0.00 | 0.00 | 68 | 1021.3 |
| 20260506092505 | 60 | 136 | 1.7 | 3.5 | 0.00 | 0.00 | 0.00 | 65 | 1021.3 |
| 20260506092005 | 60 | 93 | 2.6 | 3.5 | 0.00 | 0.00 | 0.00 | 65 | 1021.3 |
| 20260506091505 | 59 | 107 | 2.6 | 4.3 | 0.00 | 0.00 | 0.00 | 66 | 1021.3 |
| 20260506091004 | 59 | 110 | 2.6 | 4.3 | 0.00 | 0.00 | 0.00 | 66 | 1021.3 |
| 20260506090505 | 59 | 99 | 2.6 | 4.3 | 0.00 | 0.00 | 0.00 | 66 | 1021.3 |
| 20260506090007 | 59 | 97 | 2.6 | 4.3 | 0.00 | 0.00 | 0.00 | 66 | 1021.3 |
| 20260506085504 | 59 | 87 | 2.6 | 5.2 | 0.00 | 0.00 | 0.00 | 65 | 1021.3 |
| 20260506085005 | 60 | 92 | 2.6 | 5.2 | 0.00 | 0.00 | 0.00 | 64 | 1021.3 |
| 20260506084505 | 60 | 88 | 3.5 | 5.2 | 0.00 | 0.00 | 0.00 | 64 | 1021.3 |
| 20260506084005 | 60 | 59 | 2.6 | 5.2 | 0.00 | 0.00 | 0.00 | 65 | 1021.3 |
| 20260506083505 | 60 | 44 | 1.7 | 2.6 | 0.00 | 0.00 | 0.00 | 66 | 1021.3 |
| 20260506083004 | 60 | 70 | 0.9 | 2.6 | 0.00 | 0.00 | 0.00 | 69 | 1021.3 |
| 20260506082505 | 60 | 94 | 1.7 | 2.6 | 0.00 | 0.00 | 0.00 | 68 | 1021.3 |
| 20260506082005 | 60 | 89 | 1.7 | 2.6 | 0.00 | 0.00 | 0.00 | 67 | 1021.3 |
| 20260506081504 | 60 | 73 | 1.7 | 3.5 | 0.00 | 0.00 | 0.00 | 71 | 1021.3 |
| 20260506081005 | 58 | 77 | 1.7 | 3.5 | 0.00 | 0.00 | 0.00 | 74 | 1021.3 |
| 20260506080505 | 57 | 86 | 1.7 | 3.5 | 0.00 | 0.00 | 0.00 | 74 | 1021.3 |
| 20260506073505 | 55 | 42 | 2.6 | 3.5 | 0.00 | 0.00 | 0.00 | 82 | 1021.3 |
| 20260506073005 | 54 | 63 | 0.9 | 2.6 | 0.00 | 0.00 | 0.00 | 84 | 1021.3 |
| 20260506072505 | 54 | 68 | 0.9 | 2.6 | 0.00 | 0.00 | 0.00 | 84 | 1021.3 |
| 20260506072005 | 54 | 68 | 0.9 | 2.6 | 0.00 | 0.00 | 0.00 | 84 | 1021.3 |
| 20260506071504 | 54 | 68 | 0.0 | 1.7 | 0.00 | 0.00 | 0.00 | 84 | 1021.3 |
| 20260506071004 | 54 | 68 | 0.0 | 1.7 | 0.00 | 0.00 | 0.00 | 84 | 1021.3 |
| 20260506070504 | 54 | 68 | 0.0 | 0.9 | 0.00 | 0.00 | 0.00 | 84 | 1021.3 |
| 20260506062504 | 53 | 49 | 1.7 | 2.6 | 0.00 | 0.00 | 0.00 | 88 | 1021.3 |
| 20260506062004 | 53 | 49 | 0.9 | 2.6 | 0.00 | 0.00 | 0.00 | 88 | 1021.3 |
| 20260506061504 | 53 | 337 | 0.0 | 1.7 | 0.00 | 0.00 | 0.00 | 88 | 1021.3 |
| 20260506061005 | 53 | 20 | 0.9 | 2.6 | 0.00 | 0.00 | 0.00 | 88 | 1021.3 |
| 20260506060505 | 53 | 12 | 0.9 | 2.6 | 0.00 | 0.00 | 0.00 | 88 | 1021.3 |
| 20260506051005 | 52 | 297 | 0.9 | 1.7 | 0.00 | 0.00 | 0.00 | 86 | 1021.3 |
| 20260506050504 | 52 | 313 | 0.0 | 0.9 | 0.00 | 0.00 | 0.00 | 86 | 1021.3 |
| 20260506045004 | 52 | 6 | 1.7 | 2.6 | 0.00 | 0.00 | 0.00 | 85 | 1021.3 |
| 20260506044505 | 52 | 344 | 1.7 | 2.6 | 0.00 | 0.00 | 0.00 | 85 | 1021.3 |
| 20260506044004 | 52 | 336 | 1.7 | 2.6 | 0.00 | 0.00 | 0.00 | 85 | 1021.3 |
| 20260506043504 | 52 | 333 | 1.7 | 1.7 | 0.00 | 0.00 | 0.00 | 85 | 1021.3 |
| 20260506043004 | 52 | 335 | 0.9 | 1.7 | 0.00 | 0.00 | 0.00 | 85 | 1021.3 |
| 20260506042504 | 52 | 4 | 0.9 | 1.7 | 0.00 | 0.00 | 0.00 | 85 | 1021.3 |
| 20260506042004 | 52 | 9 | 0.9 | 1.7 | 0.00 | 0.00 | 0.00 | 85 | 1021.3 |
| 20260506041504 | 52 | 350 | 0.9 | 2.6 | 0.00 | 0.00 | 0.00 | 85 | 1021.3 |
| 20260506041005 | 52 | 336 | 0.9 | 2.6 | 0.00 | 0.00 | 0.00 | 84 | 1021.3 |
| 20260506040504 | 52 | 330 | 0.9 | 1.7 | 0.00 | 0.00 | 0.00 | 84 | 1021.3 |
| 20260506040006 | 52 | 3 | 1.7 | 2.6 | 0.00 | 0.00 | 0.00 | 84 | 1021.3 |
| 20260506035505 | 52 | 19 | 1.7 | 2.6 | 0.00 | 0.00 | 0.00 | 84 | 1021.3 |
| 20260506035004 | 52 | 16 | 1.7 | 3.5 | 0.00 | 0.00 | 0.00 | 84 | 1021.3 |
| 20260506034504 | 52 | 28 | 2.6 | 3.5 | 0.00 | 0.00 | 0.00 | 85 | 1021.3 |
| 20260506034004 | 52 | 45 | 3.5 | 6.1 | 0.00 | 0.00 | 0.00 | 85 | 1021.3 |